[[{"header":{"parameterUnit":"m.s-1","parameterCategory":1,"la1":30.2991,"la2":30.254,"lo1":-89.0895,"lo2":-89.0444,"dy":0.0017,"dx":0.0017,"nx":28,"ny":28,"refTime":"2023-10-16T21:00:00:Z","depth":0,"parameterNumber":2,"parameterNumberName":"U-component_of_WINDS"},"data":[0,0,0,0,0,0,0,0,0,0,0,0,0,0,0,0,0,0,0,0,0,0,0,0,0,0,0,0,0,0,0,0,0,0,0,0,0,0,0,0,0,0,0,0,0,0,0,0,0,0,0,0,0,0,0,0,0,0,-0.8529,-0.853,0,-0.8612,-0.8613,-0.8614,-0.8691,-0.8692,-0.8693,-0.8694,-0.878,-0.8782,-0.8783,0,0,0,0,0,0,0,0,0,0,0,0,0,-0.8437,-0.8439,-0.8529,-0.853,-0.8531,-0.8612,-0.8613,-0.8614,-0.8691,-0.8692,-0.8693,-0.8694,-0.878,-0.8781,-0.8783,0,0,0,0,0,0,0,0,0,0,0,0,0,-0.8494,-0.8439,-0.8529,-0.8579,-0.8584,-0.8612,-0.8613,-0.8615,-0.8691,-0.8692,-0.8693,-0.8695,-0.8779,-0.8781,-0.8783,-0.8768,0,0,-0.879,-0.8791,0,0,0,0,0,0,0,0,-0.8491,-0.8498,-0.8571,-0.8576,-0.8582,-0.8643,-0.8613,-0.8666,-0.869,-0.865,-0.8694,-0.8696,-0.8733,-0.8739,-0.8752,-0.8772,-0.8776,-0.879,-0.8791,-0.8792,-0.8793,0,0,0,0,0,0,0,-0.8487,-0.8495,-0.8562,-0.8571,-0.8578,-0.8598,-0.8607,-0.8623,-0.8683,-0.8654,-0.866,-0.8668,-0.8737,-0.875,-0.8754,-0.8777,-0.879,-0.8792,-0.8793,-0.8794,-0.8789,-0.8788,0,0,0,0,0,0,-0.8475,-0.8491,-0.8559,-0.8564,-0.8539,-0.8598,-0.8609,-0.8622,-0.8683,-0.8694,-0.8667,-0.8672,-0.8745,-0.8752,-0.8758,-0.8744,-0.8792,-0.8794,-0.8795,-0.8791,-0.8789,-0.8788,0,0,0,0,0,0,-0.8473,-0.8481,-0.8556,-0.8529,-0.854,-0.8598,-0.8612,-0.8623,-0.8636,-0.8693,-0.8704,-0.8669,-0.8747,-0.8755,-0.8765,-0.8748,-0.8795,-0.8797,-0.8792,-0.879,-0.8788,-0.8716,0,0,0,0,0,0,-0.847,-0.8479,-0.8474,-0.8528,-0.8541,-0.8561,-0.8611,-0.8623,-0.8639,-0.8646,-0.8698,-0.8708,-0.8748,-0.8761,-0.8767,-0.8752,-0.8799,-0.8794,-0.8792,-0.8789,-0.872,-0.8712,-0.8705,0,0,0,0,0,-0.8466,-0.8451,-0.8473,-0.8481,-0.8536,-0.856,-0.8567,-0.8614,-0.8637,-0.8632,-0.8669,-0.8706,-0.8749,-0.8762,-0.8769,-0.8754,-0.8796,-0.8792,-0.8789,-0.8724,-0.8714,-0.8705,0,0,0,0,0,0,-0.8393,-0.8459,-0.8485,-0.8486,-0.8517,-0.8573,-0.8568,-0.8602,-0.8627,-0.8632,-0.8689,-0.87,-0.8704,-0.873,-0.8743,-0.8743,-0.8777,-0.8775,-0.8725,-0.8716,-0.8708,-0.8702,-0.8801,0,0,0,0,0,-0.8377,-0.8391,-0.8448,-0.8443,-0.8457,-0.851,-0.8522,-0.8555,-0.859,-0.8603,-0.8641,-0.8673,-0.8694,-0.8707,-0.8729,-0.8725,-0.8737,-0.8718,-0.871,-0.8704,-0.8701,-0.8701,-0.8693,-0.8777,-0.8777,-0.8777,0,0,-0.8344,-0.8382,-0.8387,-0.8429,-0.8457,-0.847,-0.852,-0.8532,-0.8543,-0.8605,-0.8617,-0.8646,-0.8686,-0.8688,-0.8691,-0.871,-0.8681,-0.87,-0.8694,-0.8695,-0.8697,-0.8689,-0.8682,-0.8775,-0.8776,-0.8776,0,0,-0.8291,-0.832,-0.832,-0.8347,-0.8388,-0.8423,-0.8423,-0.8474,-0.8495,-0.8508,-0.8555,-0.8568,-0.8603,-0.8629,-0.8647,-0.8603,-0.8638,-0.8609,-0.8568,-0.8567,-0.8561,-0.8555,-0.8539,-0.8533,-0.8607,-0.8606,-0.8606,0,-0.8244,-0.8266,-0.8316,-0.8325,-0.8342,-0.8398,-0.8399,-0.8422,-0.8469,-0.8479,-0.85,-0.8544,-0.8575,-0.8585,-0.8574,-0.8587,-0.8588,-0.8603,-0.8557,-0.8552,-0.8548,-0.8534,-0.8528,-0.8603,-0.8603,-0.8603,-0.8604,0,-0.8207,-0.8221,-0.8216,-0.8259,-0.8276,-0.828,-0.8331,-0.8342,-0.8373,-0.8406,-0.8418,-0.8457,-0.8488,-0.8493,-0.8524,-0.8507,-0.8518,-0.8547,-0.8583,-0.8535,-0.8523,-0.8518,-0.8597,-0.8598,-0.86,-0.8601,0,0,-0.811,-0.818,-0.8177,-0.8197,-0.8247,-0.8259,-0.8266,-0.8296,-0.8304,-0.8334,-0.8342,-0.837,-0.8397,-0.8417,-0.8452,-0.8451,-0.8414,-0.8481,-0.8483,-0.8467,-0.8397,-0.8375,-0.8368,-0.8437,-0.8436,-0.8436,-0.8394,0,-0.8065,-0.8081,-0.8125,-0.8127,-0.8141,-0.8195,-0.8201,-0.8232,-0.8263,-0.8279,-0.8314,-0.8332,-0.8367,-0.838,-0.8381,-0.8418,-0.84,-0.8421,-0.8445,-0.8445,-0.8433,-0.8361,-0.8338,-0.8296,-0.8389,-0.8389,-0.8388,0,-0.8015,-0.8041,-0.8044,-0.8092,-0.81,-0.8104,-0.8135,-0.815,-0.8187,-0.8209,-0.8231,-0.827,-0.8281,-0.8314,-0.8329,-0.8343,-0.8355,-0.8374,-0.8374,-0.8378,-0.8414,-0.8363,-0.8284,-0.8278,-0.8381,-0.8381,-0.8382,0,-0.7943,-0.7979,-0.7986,-0.8001,-0.8058,-0.806,-0.8084,-0.8122,-0.8137,-0.8164,-0.8175,-0.8203,-0.8218,-0.8239,-0.8284,-0.8304,-0.8295,-0.8332,-0.8314,-0.8313,-0.831,-0.8309,-0.8231,-0.8317,-0.8317,-0.8317,-0.8318,0,-0.7888,-0.7888,-0.7955,-0.7958,-0.796,-0.8011,-0.8011,-0.804,-0.8073,-0.8084,-0.8133,-0.8142,-0.8201,-0.8217,-0.8252,-0.8259,-0.8266,-0.8285,-0.8294,-0.8281,-0.8278,-0.8289,-0.8293,-0.8316,-0.8316,-0.8316,-0.8317,0,-0.7809,-0.7854,-0.7864,-0.7917,-0.793,-0.7929,-0.7974,-0.798,-0.8014,-0.8027,-0.8033,-0.8086,-0.8107,-0.8154,-0.8188,-0.8212,-0.8211,-0.8228,-0.8198,-0.8204,-0.8184,-0.8185,-0.8111,-0.8104,-0.8193,-0.8192,-0.8191,0,-0.7771,-0.7772,-0.7825,-0.7835,-0.7857,-0.7873,-0.7889,-0.7939,-0.7953,-0.7995,-0.7996,-0.8021,-0.8043,-0.8075,-0.8117,-0.8143,-0.8161,-0.8133,-0.8166,-0.8152,-0.8161,-0.816,-0.8161,-0.8126,-0.8125,-0.8124,-0.8123,0,-0.7699,-0.7721,-0.7741,-0.7768,-0.7785,-0.781,-0.7837,-0.7842,-0.79,-0.7913,-0.7935,-0.7952,-0.7987,-0.8011,-0.8044,-0.807,-0.8106,-0.8112,-0.811,-0.8096,-0.8079,-0.8088,-0.8179,-0.8114,-0.8115,-0.8116,-0.8116,-0.8116,-0.764,-0.7643,-0.768,-0.7701,-0.7726,-0.775,-0.7758,-0.7793,-0.7812,-0.7843,-0.7872,-0.7891,-0.7928,-0.7975,-0.7998,-0.8014,-0.8033,-0.8029,-0.8028,-0.8026,-0.802,-0.8076,-0.8021,-0.8021,-0.8021,-0.8022,-0.8022,0,-0.757,-0.7596,-0.7615,-0.7651,-0.7667,-0.7699,-0.773,-0.7742,-0.7758,-0.7789,-0.781,-0.7835,-0.7859,-0.7902,-0.793,-0.7934,-0.7952,-0.794,-0.794,-0.7946,-0.8002,-0.8002,-0.7926,-0.7926,-0.7926,-0.7926,-0.7926,-0.7926,-0.7536,-0.7543,-0.7569,-0.7589,-0.7616,-0.7635,-0.765,-0.7672,-0.7697,-0.7723,-0.7742,-0.777,-0.7806,-0.7837,-0.786,-0.7872,-0.788,-0.7863,-0.788,-0.7933,-0.7942,-0.795,-0.795,-0.7864,-0.7864,-0.7823,-0.7822,-0.7822]},{"header":{"parameterUnit":"m.s-1","parameterCategory":1,"la1":30.2991,"la2":30.254,"lo1":-89.0895,"lo2":-89.0444,"dy":0.0017,"dx":0.0017,"nx":28,"ny":28,"refTime":"2023-10-16T21:00:00:Z","depth":0,"parameterNumber":3,"parameterNumberName":"V-component_of_WINDS"},"data":[0,0,0,0,0,0,0,0,0,0,0,0,0,0,0,0,0,0,0,0,0,0,0,0,0,0,0,0,0,0,0,0,0,0,0,0,0,0,0,0,0,0,0,0,0,0,0,0,0,0,0,0,0,0,0,0,0,0,0.7619,0.7618,0,0.7582,0.7582,0.7581,0.7559,0.7559,0.7559,0.7558,0.7519,0.7518,0.7517,0,0,0,0,0,0,0,0,0,0,0,0,0,0.7668,0.7667,0.7619,0.7618,0.7618,0.7582,0.7582,0.7581,0.7559,0.7559,0.7559,0.7558,0.752,0.7518,0.7517,0,0,0,0,0,0,0,0,0,0,0,0,0,0.764,0.7667,0.7619,0.7602,0.7601,0.7582,0.7582,0.7581,0.7559,0.7559,0.7558,0.7558,0.752,0.7519,0.7517,0.7512,0,0,0.7513,0.7512,0,0,0,0,0,0,0,0,0.7642,0.7638,0.7605,0.7603,0.7601,0.7575,0.7585,0.7558,0.7559,0.7575,0.7558,0.7558,0.7538,0.7535,0.7528,0.751,0.7508,0.7513,0.7512,0.7511,0.7511,0,0,0,0,0,0,0,0.7644,0.764,0.7604,0.7605,0.7602,0.7596,0.7592,0.7579,0.7558,0.7573,0.7572,0.7568,0.7537,0.753,0.7527,0.7508,0.7513,0.7512,0.7511,0.751,0.7483,0.7483,0,0,0,0,0,0,0.7648,0.7642,0.7605,0.7603,0.7622,0.7596,0.7591,0.7584,0.7558,0.7554,0.7568,0.7567,0.7532,0.7529,0.7526,0.7518,0.7511,0.751,0.7509,0.7483,0.7483,0.7483,0,0,0,0,0,0,0.765,0.7645,0.7607,0.7622,0.7617,0.7595,0.7587,0.7583,0.7576,0.7554,0.7549,0.7565,0.7532,0.7528,0.7516,0.7516,0.7509,0.7508,0.7483,0.7483,0.7483,0.7503,0,0,0,0,0,0,0.7651,0.7646,0.7644,0.7622,0.7616,0.7598,0.7587,0.7582,0.7574,0.7572,0.755,0.7546,0.7532,0.7518,0.7514,0.7514,0.7507,0.7483,0.7483,0.7483,0.7502,0.7503,0.7505,0,0,0,0,0,0.7653,0.7651,0.7644,0.764,0.7613,0.7598,0.7594,0.7578,0.7574,0.7572,0.7557,0.7546,0.7517,0.7517,0.7513,0.7512,0.7483,0.7483,0.7483,0.7501,0.7503,0.7505,0,0,0,0,0,0,0.7673,0.7647,0.764,0.763,0.7617,0.7594,0.7591,0.7581,0.7568,0.7567,0.7547,0.7542,0.7532,0.7521,0.7521,0.7506,0.7499,0.7498,0.7514,0.7515,0.7517,0.752,0.7506,0,0,0,0,0,0.7676,0.7666,0.7644,0.7638,0.7632,0.7613,0.7605,0.7594,0.7579,0.7573,0.7557,0.7542,0.753,0.7522,0.7509,0.75,0.7495,0.7498,0.7499,0.75,0.75,0.7495,0.7496,0.7484,0.7484,0.7484,0,0,0.7682,0.7667,0.7662,0.7642,0.763,0.762,0.7608,0.7598,0.759,0.7571,0.7559,0.7547,0.7529,0.7519,0.7513,0.7509,0.7502,0.7501,0.7502,0.7501,0.7495,0.7496,0.7497,0.7485,0.7485,0.7485,0,0,0.7689,0.7677,0.7671,0.7659,0.7641,0.7629,0.7627,0.7606,0.7598,0.7586,0.7571,0.7562,0.754,0.7528,0.7519,0.7522,0.7511,0.7518,0.7526,0.7521,0.7522,0.7522,0.7523,0.7524,0.7518,0.7518,0.7518,0,0.77,0.7685,0.7668,0.7659,0.7651,0.7634,0.7627,0.7616,0.7595,0.7589,0.7585,0.7558,0.7544,0.7531,0.7532,0.7525,0.7522,0.752,0.7523,0.7523,0.7524,0.7525,0.7525,0.7519,0.7519,0.7519,0.7518,0,0.7698,0.7688,0.7685,0.7666,0.7656,0.7649,0.7631,0.7623,0.7613,0.7601,0.7588,0.7572,0.7555,0.7551,0.7541,0.7536,0.7534,0.7527,0.7519,0.7526,0.7527,0.7527,0.752,0.752,0.7519,0.7519,0,0,0.7716,0.7689,0.7688,0.7679,0.7658,0.765,0.7641,0.7626,0.762,0.7605,0.7597,0.758,0.7573,0.7563,0.7551,0.7546,0.755,0.7539,0.7538,0.7542,0.7544,0.755,0.755,0.7543,0.7543,0.7543,0.7545,0,0.7721,0.7705,0.769,0.7679,0.767,0.7654,0.7646,0.7632,0.762,0.761,0.7597,0.7585,0.7576,0.757,0.7565,0.755,0.755,0.755,0.7535,0.7534,0.754,0.7551,0.7557,0.756,0.7545,0.7545,0.7545,0,0.7723,0.7711,0.7699,0.768,0.7675,0.7669,0.7654,0.7644,0.7628,0.762,0.7609,0.7596,0.7586,0.7579,0.7564,0.7565,0.7557,0.7549,0.7549,0.7547,0.754,0.7549,0.7561,0.7562,0.7545,0.7545,0.7545,0,0.7738,0.7718,0.7709,0.7702,0.7679,0.7675,0.7665,0.7649,0.764,0.7627,0.7621,0.7606,0.7598,0.7587,0.757,0.7567,0.7557,0.7549,0.755,0.755,0.7549,0.7549,0.756,0.7544,0.7544,0.7544,0.7544,0,0.7745,0.7738,0.7716,0.771,0.7702,0.7685,0.7678,0.7666,0.7652,0.7644,0.7628,0.762,0.7599,0.7589,0.7576,0.7566,0.7562,0.7555,0.7551,0.7556,0.7557,0.7551,0.7551,0.7544,0.7544,0.7544,0.7544,0,0.776,0.7745,0.7733,0.7713,0.7707,0.7703,0.7685,0.7678,0.7666,0.7655,0.7652,0.7632,0.7619,0.7601,0.7582,0.7574,0.7565,0.756,0.7571,0.7569,0.757,0.7571,0.7578,0.7578,0.7562,0.7562,0.7562,0,0.7765,0.776,0.7739,0.7733,0.7724,0.7713,0.7705,0.7688,0.768,0.7661,0.7657,0.7643,0.7631,0.761,0.7594,0.7579,0.7573,0.7577,0.7571,0.7576,0.7574,0.7574,0.7574,0.7579,0.7579,0.7579,0.7579,0,0.7776,0.7769,0.7758,0.7745,0.7735,0.7724,0.7711,0.7706,0.7686,0.7678,0.7665,0.7656,0.7637,0.7623,0.7606,0.7595,0.7584,0.7581,0.7581,0.7586,0.7592,0.7589,0.7575,0.7581,0.7581,0.7581,0.7581,0.7581,0.7787,0.7782,0.7766,0.7755,0.7744,0.7733,0.7726,0.7713,0.7702,0.7686,0.7676,0.7663,0.7647,0.7623,0.7613,0.7602,0.7598,0.7597,0.7596,0.7597,0.7598,0.7594,0.7599,0.7599,0.7599,0.7599,0.7599,0,0.7797,0.7787,0.7776,0.776,0.7751,0.7741,0.7727,0.772,0.7709,0.7695,0.7684,0.7669,0.7655,0.7638,0.7623,0.7617,0.7612,0.7614,0.7614,0.7612,0.7603,0.7605,0.7619,0.7619,0.7619,0.7619,0.7619,0.7619,0.7802,0.7793,0.7784,0.7769,0.7758,0.7746,0.7739,0.7728,0.7717,0.7701,0.769,0.7679,0.7664,0.7648,0.7634,0.763,0.7625,0.7629,0.7622,0.7614,0.7613,0.7611,0.7613,0.7628,0.7628,0.7632,0.7632,0.7632]}]]